DELTA 1 DEB, 1312

Orbit data source: Space-Track

DELTA 1 DEB, 1312 is space debris in SSO originally from a launch on Fri, 22 Jan 1965 UTC launched from the Air Force Eastern Test Range (AFETR). Debris objects in space refer to the collection of defunct objects orbiting the Earth. Examples of debris include non-operational satellites, rocket bodies, and fragments generated from explosions, collisions, or faulty payload assembly.

Loading next visibility...
Identifier
1312, 1965-004C
Orbit
SSO
Last TLE update
2 days ago
Origin
Manufacturer
Unknown
Mission
Spacecraft
Bus & Motor
Unknown
Mass
~1 kg wet, ~1 kg dry
Launch date (UTC)
1965-01-22 (60 years ago)
Launch vehicle
Unknown
Launch site
Air Force Eastern Test Range (AFETR)
Object type
Payload
Rocket body
Debris
Shape & HBR
Box + 1 Cable, 3.5 m
Radar Cross Section
6.125 m², Small (<0.1 m²)

Expand to show TLE details & history

TLE from 2 days ago
0 DELTA 1 DEB
1 01312U 65004C   25179.95554499  .00000151  00000-0  16545-3 0  9997
2 01312  96.3411 339.7128 1116764 183.3367 175.9780 12.28132476683227
Epoch: 2025-06-28T22:55Z
TLE epoch observation values (Epoch: 2025-06-28T22:55:59.087Z)
Latitude
0.00003°
Longitude
78.42997°
Altitude
2,444.648 km
Speed
6.337 km/s
True Right ascension
22h 38m 51s
True Declination
0° 00' 00"
Sunlit
Object was in daylight at epoch
Visualization orbit readout
Latitude
39.78166°
Longitude
-95.03272°
Altitude
829.763 km
Speed
7.778 km/s
Apparent Right ascension
09h 40m 35s
Apparent Declination
3° 04' 56"
Sunlit
Object is in daylight
Visualization observer readout
Local Sidereal Time
20:04:21
Azimuth
326.98° NNW
Elevation
-41.671°
Doppler factor
1
Orbital elements
Apogee altitude
2,440.496 km
Perigee altitude
668.698 km
Semi-major axis
7,932.734 km
Eccentricity
0.11168
Inclination
96.3411°
RAAN
339.7128°
Arg. of periapsis
183.3367°
True anomaly
Unknown
Mean anomaly
175.978°
Eccentric anomaly
Unknown
Mean motion
3.07191 °/min
Orbital period
117.19 mins
BSTAR
0.00016545
Loading maneuver chart data...
Loading SW <> Apogee altitude chart data...
Loading historical data...
Loading historical data...
Loading historical data...
Loading historical data...
Loading historical data...
Loading historical data...
Loading historical data...
Other satellites on launch #4 in the year 1965 (1965-01-22 UTC)

DELTA 1 DEB Visibility forecast

Observer location: undefined°, undefined°

Span
Click to sort rows by Start time (UTC) header in descending order
Start Az.
Max El. time (UTC)
Max El. Az.
Max El.
End time (UTC)
End Az.
22 mins2025-07-01 09:40:14.250Z142.683° SSE2025-07-01 09:52:14.250Z76.306° E39.122°2025-07-01 10:02:14.250Z359.53° N
21 mins2025-07-01 11:37:14.250Z197.758° SSW2025-07-01 11:48:14.250Z266.531° W36.38°2025-07-01 11:58:14.250Z337.068° NNW
5 mins2025-07-01 22:05:14.250Z57.491° ENE2025-07-01 22:07:14.250Z83.051° E16.245°2025-07-01 22:10:14.250Z122.762° SE
8 mins2025-07-02 00:00:14.250Z350.396° N2025-07-02 00:04:14.250Z283.024° WNW32.91°2025-07-02 00:08:14.250Z221.86° SW
|